User: anonymous   Login
Location: LDNL
(36.4545°S, 141.6685°E)
Time: 06:03:29
(UTC+10:00)
Language:

Tiros 1 - Orbit

View from above orbital plane
View from above orbital plane
View from above satellite
View from above satellite

Ground track
Ground track

The orbit data is extracted from the following two-line orbital elements,

1 00029U 60002B   22220.69550283  .00000181  00000-0  57502-4 0  9998
2 00029  48.3781 216.3484 0024300 338.2301  21.7576 14.74694255333971
Epoch (UTC): 08 August 2022 16:41:31
Eccentricity: 0.0024300
inclination: 48.3781°
perigee height: 629 km
apogee height: 663 km
right ascension of ascending node: 216.3484°
argument of perigee: 338.2301°
revolutions per day: 14.74694255
mean anomaly at epoch: 21.7576°
orbit number at epoch: 33397

The dashed part of the orbit path shows where the satellite is in the earth's shadow,  

DLR